Wind_Speed
14 15 15 15 18 22 24 24 23 22 22 23 26 27 27 25 21 20 20 19 18 17 16 18 13 17 20 15 11 7 6 6 7 7 8 11 15 14 13 13 12 13 13 8 13
18 18 18 18 16 17 18 21 25 25 24 23 24 27 28 29 27 23 20 20 20 21 19 22 19 17 16 11 11 7 6 7 9 10 12 14 17 16 15 14 13 14 16 10 11
22 22 21 21 21 20 18 17 18 21 25 25 25 25 27 30 30 28 23 23 23 24 23 22 23 18 15 12 12 8 9 11 13 15 15 15 16 17 16 15 11 12 16 15 12
26 26 26 25 24 23 21 20 19 18 19 23 26 26 26 28 31 30 28 25 23 25 25 22 25 22 17 14 13 9 10 13 15 17 17 16 15 15 15 14 14 9 9 12 12
29 30 30 29 28 27 25 23 23 20 18 18 23 25 26 26 29 35 32 29 24 27 27 25 25 23 22 18 17 11 12 14 15 18 17 17 15 14 14 12 10 12 9 8 9
31 32 32 33 33 31 29 28 27 24 22 20 20 21 26 27 36 32 34 33 29 27 31 29 27 28 24 19 20 13 12 14 16 18 18 17 14 14 14 11 10 8 9 8 7
34 34 34 35 36 35 34 32 30 28 26 23 21 19 22 32 35 31 31 35 35 30 32 33 32 31 26 24 19 16 14 12 14 18 20 18 15 14 14 13 10 9 7 8 8
39 40 39 38 37 37 37 36 35 32 30 27 24 23 22 28 32 33 32 34 37 35 34 36 33 33 29 24 23 19 15 12 13 17 17 20 15 15 15 14 12 10 8 8 7
40 42 43 43 42 41 40 39 38 37 34 32 29 25 27 27 29 34 34 35 38 40 38 37 35 33 32 27 26 26 17 15 16 20 20 21 20 18 18 16 15 12 9 8 8
40 43 45 46 46 46 45 43 40 40 38 37 34 31 29 28 28 29 36 35 37 41 42 39 37 35 34 31 27 26 20 18 17 18 22 22 22 21 19 19 16 12 9 7 7
39 40 42 45 47 49 50 49 45 41 42 41 38 36 32 31 30 29 33 38 40 41 43 43 41 37 32 28 26 22 22 18 17 21 23 23 23 22 22 20 18 15 10 8 7
38 38 39 42 44 45 49 51 52 49 44 45 43 38 38 36 32 32 30 39 42 38 39 48 47 36 36 32 29 29 27 22 19 26 24 23 24 25 23 21 18 15 12 11 9
40 37 38 39 41 43 43 46 53 55 49 46 46 43 43 40 35 34 32 34 40 41 40 39 35 42 41 38 34 35 32 24 24 28 27 27 25 24 23 21 19 17 15 13 11
31 28 27 30 35 38 41 42 45 55 52 51 50 48 47 44 41 37 36 34 40 43 39 37 41 48 44 41 37 33 31 32 30 29 26 28 18 22 24 23 19 19 18 15 13
27 28 29 29 30 32 37 38 38 49 46 52 54 52 50 48 44 43 40 40 36 39 46 40 43 47 50 43 38 30 33 28 35 29 24 27 23 16 25 22 20 21 21 19 16
34 31 32 32 32 33 35 35 38 43 46 41 50 50 54 52 48 46 45 41 37 40 47 40 40 44 46 41 40 39 36 35 32 31 30 23 22 17 18 17 18 20 20 18 16
36 36 34 33 36 36 37 39 38 40 39 40 45 46 50 54 53 50 50 48 46 44 49 47 48 45 49 52 51 52 45 38 35 33 30 26 28 21 18 20 20 18 17 19 20
38 38 33 35 33 35 38 37 41 39 37 38 42 49 48 54 55 55 55 52 46 42 38 46 49 49 54 57 56 55 50 39 33 32 27 34 34 22 23 24 23 17 14 18 19
39 39 37 39 35 36 35 35 37 38 40 36 35 47 52 55 55 59 58 55 48 44 43 46 48 49 47 53 60 57 59 38 30 29 27 26 29 26 28 27 23 18 16 14 17
39 38 38 39 37 36 34 36 39 38 42 40 30 44 54 56 56 59 61 58 53 49 44 40 41 45 45 48 58 60 50 51 42 37 34 26 26 24 31 30 24 20 17 16 10
42 39 40 38 36 35 36 39 40 42 42 45 40 34 54 56 61 60 61 62 58 54 49 45 39 48 51 57 52 60 59 61 41 35 31 27 25 31 32 34 29 25 22 18 12
44 42 41 40 40 38 40 42 45 48 52 49 47 43 51 60 65 63 64 69 65 61 57 47 46 43 55 53 51 54 58 58 55 48 36 25 20 24 38 36 31 28 24 20 13
44 42 41 39 39 41 45 53 63 63 66 62 56 53 43 64 64 64 67 66 66 65 62 50 52 51 49 57 54 55 56 57 53 43 41 38 30 30 38 38 33 29 25 24 17
45 41 39 37 39 43 48 44 28 28 41 60 60 59 51 65 64 67 66 66 68 67 63 61 55 52 52 53 54 58 55 59 56 56 44 41 33 29 39 38 34 31 26 17 18
42 39 38 37 38 39 29 5 8 6 22 35 49 59 59 60 67 64 65 64 67 71 67 66 58 50 46 48 52 56 55 60 63 56 51 36 37 33 38 39 34 31 27 22 21
43 39 35 34 35 28 11 5 8 8 19 24 37 48 57 52 65 58 67 64 69 70 69 67 62 54 45 50 57 56 57 55 56 57 54 46 35 38 43 42 40 32 29 22 23
43 37 32 32 27 20 6 2 10 8 16 24 34 37 53 55 69 67 63 66 66 66 70 68 63 60 53 46 50 57 57 53 51 52 53 53 42 37 50 49 41 35 33 29 28
Wind_Direction
290 288 285 281 272 265 262 261 259 256 250 242 233 228 227 232 233 228 225 218 213 210 205 193 174 173 169 172 168 155 144 187 195 194 153 135 123 120 123 127 131 129 124 141 140
289 288 285 283 281 278 273 265 259 257 253 248 241 233 228 228 232 231 222 217 211 208 210 191 184 169 178 179 178 176 160 175 188 184 154 147 131 124 119 118 125 127 123 135 138
285 282 282 283 281 278 276 275 271 261 254 250 245 239 232 229 229 230 225 220 212 205 211 203 191 186 187 177 175 180 172 177 182 174 160 152 139 130 126 116 109 117 123 131 134
284 282 281 278 277 277 275 273 271 268 263 253 245 240 235 232 231 226 225 225 212 209 211 208 193 192 200 184 188 188 181 176 173 174 162 158 147 135 133 127 118 103 104 121 129
281 279 278 276 274 273 274 273 268 265 264 261 250 240 236 232 232 225 221 223 216 207 213 210 208 197 201 192 197 199 182 174 170 170 168 167 155 144 135 133 128 119 115 110 118
280 278 275 272 271 270 268 266 267 266 262 260 258 244 234 230 231 225 223 220 220 210 211 211 203 206 199 192 196 191 182 177 175 175 177 173 159 148 140 142 134 119 116 115 118
280 278 275 272 270 267 265 262 262 262 261 256 255 252 235 232 232 228 224 221 220 213 212 212 205 208 206 199 198 198 202 191 190 180 180 170 163 155 149 150 147 138 126 118 125
278 275 273 271 268 265 262 259 258 257 257 255 250 247 244 239 230 228 224 221 219 214 214 215 208 209 213 208 204 209 216 211 206 189 181 173 167 166 162 159 160 153 139 116 125
280 276 272 268 265 264 261 257 255 253 252 252 249 242 242 247 235 225 225 222 220 216 212 214 213 208 212 208 205 210 212 203 217 203 192 184 172 175 175 168 169 158 147 130 138
286 281 276 271 266 261 259 257 251 250 248 247 246 243 239 243 244 231 222 221 222 220 213 214 214 210 211 211 203 202 199 209 210 210 198 190 182 187 182 178 170 162 156 150 141
290 289 286 281 273 266 259 255 253 245 245 243 242 241 238 239 240 239 226 219 222 221 216 214 214 214 213 210 198 209 209 199 195 205 210 194 186 192 195 187 174 167 169 168 165
298 296 293 288 282 274 265 258 252 246 237 242 240 236 237 237 235 239 232 226 223 222 218 216 214 209 214 214 212 198 199 199 210 203 210 201 195 196 202 193 182 177 183 181 182
301 295 291 291 290 285 278 266 255 248 239 234 237 234 233 233 232 234 232 230 223 222 220 220 217 213 214 213 209 196 196 197 208 210 215 212 207 204 204 203 194 194 194 190 187
301 297 295 293 293 292 287 280 264 251 243 233 233 232 230 231 230 232 232 230 223 221 220 214 212 213 214 213 212 201 196 201 208 213 216 220 212 224 215 209 206 210 205 199 192
308 303 296 292 296 294 292 289 281 257 251 236 228 230 229 228 223 228 230 228 228 221 221 217 212 210 212 212 212 202 204 199 203 211 204 226 217 223 233 227 222 219 217 208 202
309 297 293 292 293 290 296 295 288 272 268 244 233 226 228 226 223 223 227 227 224 219 220 214 216 212 210 213 215 215 211 207 205 208 220 210 224 221 248 227 232 235 228 213 208
303 296 292 292 292 286 292 288 292 283 273 252 234 226 223 224 222 219 223 224 225 222 215 211 211 208 206 207 210 214 216 213 210 210 215 225 229 201 218 217 217 217 218 218 208
301 299 293 293 296 292 289 283 282 287 277 270 231 222 216 219 219 217 218 222 218 223 223 223 216 209 205 206 211 214 215 208 210 211 217 229 224 219 213 197 204 190 208 223 215
299 301 296 297 296 297 287 280 280 278 273 267 238 219 214 212 214 214 215 220 220 220 223 219 218 214 214 209 211 212 217 212 215 216 223 237 221 209 204 197 194 191 214 233 227
305 304 302 296 297 296 282 285 279 274 267 259 250 220 211 209 209 210 212 215 214 215 215 221 217 220 219 213 213 215 215 214 210 214 221 217 220 212 203 192 191 203 218 231 214
314 305 302 298 297 290 281 277 275 271 260 250 247 241 208 206 206 207 207 210 209 210 211 214 211 219 215 215 215 213 211 215 218 209 218 215 220 198 201 198 195 205 214 211 205
314 311 307 302 298 291 283 277 271 263 254 243 239 242 215 202 203 203 206 207 204 205 209 209 209 212 214 214 217 217 218 215 214 217 214 217 209 211 199 199 199 208 215 201 205
319 312 310 305 302 298 295 291 281 261 245 241 235 237 230 203 204 202 204 205 205 203 205 202 209 207 218 211 211 217 215 218 220 217 220 212 199 207 198 199 201 206 219 219 203
327 321 316 311 306 311 312 298 275 260 240 231 228 229 235 207 204 199 202 202 204 204 204 207 204 211 217 215 212 213 211 215 215 219 219 216 193 216 194 199 202 206 219 217 213
330 327 321 319 322 326 326 8 57 276 219 208 213 214 224 212 202 199 200 201 201 203 201 206 210 209 209 215 217 216 216 213 215 215 217 205 218 206 196 200 198 203 211 206 208
335 331 327 329 335 335 317 252 37 250 186 198 196 215 211 212 205 195 199 197 200 201 201 204 207 212 212 214 216 216 216 219 219 214 218 218 219 210 201 200 198 196 199 196 204
336 336 334 335 346 338 291 232 52 223 196 171 208 208 203 211 202 196 194 197 198 202 201 202 204 208 211 215 218 219 219 219 219 217 220 224 216 214 199 203 194 191 197 191 195
Height
5874 5873 5872 5872 5872 5872 5872 5872 5872 5873 5874 5876 5878 5880 5882 5883 5885 5887 5889 5892 5893 5896 5898 5899 5902 5904 5906 5907 5907 5908 5910 5911 5911 5911 5910 5910 5908 5909 5910 5909 5909 5909 5908 5910 5908
5871 5871 5870 5869 5868 5868 5867 5867 5868 5869 5870 5871 5872 5874 5877 5879 5881 5884 5886 5887 5890 5893 5895 5898 5901 5904 5906 5906 5907 5908 5910 5910 5911 5911 5911 5912 5910 5910 5912 5911 5911 5910 5908 5910 5910
5867 5866 5866 5865 5864 5864 5864 5864 5864 5863 5864 5866 5867 5869 5871 5873 5876 5879 5882 5883 5886 5889 5892 5896 5899 5903 5905 5906 5907 5908 5910 5910 5911 5911 5912 5913 5913 5912 5913 5913 5913 5913 5910 5910 5911
5861 5860 5860 5860 5859 5859 5860 5860 5860 5859 5859 5860 5861 5863 5866 5868 5872 5874 5878 5880 5884 5887 5890 5895 5898 5901 5903 5906 5907 5908 5909 5909 5911 5912 5912 5914 5914 5913 5914 5914 5913 5914 5913 5911 5911
5855 5853 5853 5853 5852 5853 5854 5854 5854 5855 5855 5855 5855 5858 5860 5864 5865 5867 5872 5876 5880 5884 5887 5892 5896 5898 5901 5905 5907 5908 5909 5910 5910 5912 5913 5915 5914 5914 5913 5914 5914 5914 5915 5914 5914
5847 5846 5845 5845 5844 5845 5847 5847 5848 5849 5850 5851 5851 5852 5855 5857 5853 5862 5867 5871 5875 5880 5883 5887 5892 5896 5899 5903 5906 5907 5909 5910 5910 5912 5914 5915 5915 5914 5914 5916 5916 5915 5915 5915 5916
5839 5837 5836 5836 5836 5837 5838 5839 5840 5842 5843 5845 5846 5847 5849 5846 5849 5857 5862 5866 5870 5875 5878 5883 5887 5892 5897 5901 5904 5906 5909 5910 5911 5912 5912 5913 5915 5915 5915 5916 5916 5916 5917 5916 5917
5828 5827 5826 5826 5827 5827 5828 5830 5832 5834 5836 5838 5840 5842 5843 5842 5845 5851 5855 5859 5864 5870 5873 5877 5883 5888 5893 5898 5903 5906 5908 5910 5911 5911 5912 5912 5915 5914 5916 5916 5916 5917 5917 5917 5919
5817 5814 5813 5814 5815 5816 5817 5820 5822 5825 5828 5830 5833 5835 5836 5836 5840 5844 5849 5853 5857 5862 5868 5873 5878 5885 5889 5894 5899 5903 5908 5911 5909 5910 5910 5911 5912 5914 5916 5915 5917 5916 5917 5918 5920
5805 5802 5800 5800 5801 5802 5805 5807 5811 5815 5818 5821 5825 5829 5829 5831 5833 5837 5841 5847 5850 5855 5863 5868 5874 5879 5884 5888 5895 5901 5905 5908 5908 5910 5910 5910 5911 5914 5914 5915 5916 5916 5917 5919 5920
5794 5792 5788 5786 5786 5788 5791 5794 5800 5806 5807 5810 5815 5818 5822 5823 5827 5831 5835 5839 5842 5847 5854 5863 5868 5872 5881 5887 5893 5900 5903 5907 5909 5908 5910 5910 5911 5912 5914 5915 5915 5915 5917 5919 5921
5784 5781 5777 5774 5772 5772 5775 5778 5782 5788 5798 5798 5803 5810 5812 5815 5820 5823 5827 5831 5835 5843 5850 5853 5859 5872 5876 5882 5888 5893 5898 5904 5908 5906 5908 5910 5910 5911 5913 5914 5914 5915 5917 5920 5921
5773 5770 5766 5762 5759 5758 5759 5762 5765 5770 5781 5789 5790 5798 5800 5807 5811 5815 5820 5823 5829 5835 5841 5849 5866 5866 5869 5875 5881 5888 5893 5900 5906 5904 5906 5908 5911 5911 5912 5913 5913 5915 5917 5919 5921
5761 5759 5756 5752 5751 5747 5746 5747 5749 5753 5764 5774 5777 5784 5789 5796 5802 5808 5812 5816 5819 5826 5835 5843 5850 5856 5863 5869 5877 5884 5892 5895 5898 5901 5906 5907 5912 5912 5911 5912 5913 5915 5916 5918 5920
5752 5749 5746 5743 5741 5739 5737 5735 5736 5738 5749 5757 5765 5771 5778 5784 5793 5796 5803 5805 5812 5822 5824 5835 5840 5847 5854 5864 5872 5882 5887 5891 5895 5898 5905 5904 5908 5916 5910 5912 5913 5914 5916 5917 5919
5742 5740 5737 5734 5731 5729 5726 5726 5725 5728 5730 5740 5748 5757 5765 5771 5781 5787 5792 5800 5806 5809 5815 5828 5835 5839 5852 5862 5867 5875 5878 5884 5889 5895 5898 5902 5905 5911 5909 5911 5911 5913 5914 5916 5918
5732 5729 5727 5724 5721 5719 5716 5715 5715 5715 5718 5725 5732 5740 5751 5758 5767 5775 5781 5787 5793 5798 5804 5815 5821 5832 5842 5848 5856 5861 5870 5876 5882 5886 5893 5899 5899 5907 5909 5907 5909 5910 5912 5913 5916
5722 5718 5715 5712 5710 5708 5705 5704 5703 5705 5707 5706 5716 5723 5732 5741 5753 5762 5768 5776 5786 5794 5803 5810 5815 5821 5827 5836 5845 5851 5862 5870 5875 5883 5890 5889 5892 5901 5903 5905 5907 5909 5911 5912 5914
5711 5707 5704 5700 5697 5695 5693 5691 5690 5690 5692 5697 5701 5707 5716 5725 5737 5746 5756 5767 5780 5787 5794 5798 5808 5818 5825 5833 5838 5847 5851 5869 5879 5883 5888 5888 5892 5896 5899 5903 5905 5908 5909 5911 5912
5700 5696 5691 5687 5683 5680 5678 5679 5674 5676 5676 5683 5688 5692 5701 5710 5724 5731 5743 5757 5767 5778 5787 5793 5803 5811 5822 5827 5832 5839 5856 5859 5866 5875 5879 5886 5889 5894 5897 5900 5904 5907 5909 5910 5911
5688 5682 5677 5673 5669 5665 5661 5660 5660 5658 5660 5667 5675 5677 5685 5697 5707 5719 5731 5742 5754 5767 5776 5785 5794 5799 5806 5809 5822 5829 5836 5848 5863 5869 5875 5882 5887 5889 5893 5898 5901 5905 5906 5909 5910
5675 5668 5662 5656 5652 5648 5643 5641 5640 5639 5640 5648 5656 5663 5670 5681 5692 5702 5713 5720 5738 5750 5761 5776 5783 5788 5793 5806 5818 5824 5834 5842 5848 5857 5869 5879 5886 5888 5890 5895 5899 5901 5903 5907 5909
5662 5653 5647 5641 5634 5628 5621 5614 5606 5606 5612 5621 5634 5645 5655 5666 5677 5689 5699 5712 5725 5738 5751 5764 5768 5776 5781 5795 5803 5811 5823 5834 5847 5857 5859 5868 5877 5878 5885 5891 5896 5899 5901 5904 5908
5649 5641 5633 5626 5618 5609 5595 5579 5573 5573 5578 5592 5612 5625 5641 5649 5663 5675 5686 5700 5713 5726 5741 5748 5757 5766 5775 5792 5800 5803 5812 5823 5834 5841 5853 5856 5871 5876 5882 5887 5892 5896 5898 5902 5906
5638 5629 5619 5612 5602 5591 5578 5569 5565 5568 5569 5581 5597 5607 5619 5635 5649 5664 5675 5689 5701 5713 5729 5739 5752 5762 5771 5781 5788 5798 5805 5812 5819 5833 5842 5854 5861 5868 5877 5881 5886 5891 5896 5899 5902
5628 5619 5609 5601 5592 5581 5573 5569 5566 5566 5570 5577 5588 5596 5611 5626 5637 5651 5659 5675 5686 5702 5717 5731 5744 5755 5764 5771 5779 5787 5796 5806 5816 5825 5834 5845 5854 5864 5869 5873 5878 5886 5891 5895 5898
5620 5610 5601 5594 5585 5578 5573 5569 5567 5566 5567 5571 5581 5588 5600 5604 5622 5640 5654 5665 5679 5694 5707 5721 5736 5746 5757 5765 5772 5778 5786 5798 5809 5819 5829 5834 5847 5852 5859 5862 5873 5880 5884 5888 5893